QPF
0.00 0.00 0.00 0.00 0.00 0.00 0.00 0.00 0.00 0.00 0.00 0.00 0.00 0.00 0.00 0.00 0.01 0.01 0.01 0.00 0.00 0.00 0.01 0.01 0.01 0.00 0.00 0.00 0.01 0.01 0.02 0.03 0.05 0.03 0.02 0.02 0.02 0.03 0.03 0.03 0.02 0.02 0.03 0.04
0.00 0.00 0.00 0.00 0.00 0.00 0.00 0.00 0.00 0.00 0.00 0.00 0.00 0.00 0.00 0.01 0.01 0.01 0.01 0.01 0.00 0.01 0.01 0.01 0.01 0.00 0.00 0.00 0.01 0.01 0.02 0.02 0.03 0.03 0.03 0.04 0.05 0.05 0.04 0.05 0.05 0.03 0.03 0.03
0.00 0.00 0.00 0.00 0.00 0.00 0.00 0.00 0.00 0.00 0.00 0.00 0.00 0.00 0.00 0.00 0.00 0.00 0.00 0.00 0.00 0.01 0.01 0.01 0.01 0.00 0.00 0.00 0.01 0.01 0.01 0.02 0.04 0.08 0.12 0.11 0.06 0.03 0.02 0.03 0.04 0.05 0.06 0.06
0.00 0.00 0.00 0.00 0.00 0.00 0.00 0.00 0.00 0.00 0.00 0.00 0.00 0.00 0.00 0.00 0.00 0.00 0.00 0.00 0.00 0.01 0.01 0.01 0.01 0.00 0.00 0.00 0.01 0.01 0.02 0.03 0.05 0.09 0.08 0.06 0.04 0.03 0.04 0.05 0.05 0.07 0.09 0.10
0.00 0.00 0.00 0.00 0.00 0.00 0.00 0.00 0.00 0.00 0.00 0.00 0.00 0.00 0.00 0.00 0.00 0.00 0.00 0.00 0.00 0.00 0.01 0.01 0.01 0.00 0.00 0.01 0.01 0.02 0.02 0.03 0.05 0.07 0.07 0.07 0.06 0.06 0.05 0.04 0.05 0.07 0.08 0.10
0.00 0.00 0.00 0.00 0.00 0.00 0.00 0.00 0.01 0.02 0.01 0.01 0.01 0.01 0.01 0.00 0.00 0.00 0.00 0.00 0.00 0.00 0.00 0.00 0.01 0.01 0.00 0.00 0.01 0.01 0.02 0.04 0.05 0.08 0.09 0.07 0.05 0.04 0.04 0.03 0.03 0.05 0.06 0.07
0.00 0.00 0.00 0.00 0.00 0.01 0.01 0.01 0.01 0.01 0.01 0.01 0.01 0.01 0.01 0.00 0.00 0.00 0.00 0.00 0.00 0.00 0.00 0.00 0.00 0.01 0.01 0.01 0.02 0.02 0.03 0.03 0.02 0.02 0.02 0.02 0.01 0.02 0.02 0.02 0.03 0.03 0.03 0.04
0.00 0.00 0.00 0.00 0.00 0.01 0.02 0.01 0.01 0.00 0.00 0.00 0.00 0.01 0.01 0.01 0.01 0.00 0.00 0.01 0.01 0.00 0.00 0.00 0.01 0.01 0.01 0.01 0.01 0.02 0.02 0.02 0.02 0.02 0.02 0.02 0.02 0.01 0.02 0.02 0.02 0.02 0.01 0.01
0.00 0.00 0.00 0.00 0.00 0.01 0.03 0.03 0.01 0.01 0.00 0.01 0.01 0.01 0.02 0.03 0.02 0.01 0.01 0.02 0.02 0.01 0.01 0.01 0.01 0.01 0.01 0.01 0.01 0.01 0.01 0.01 0.01 0.02 0.02 0.02 0.01 0.01 0.02 0.02 0.02 0.01 0.01 0.00
0.00 0.00 0.00 0.00 0.01 0.01 0.01 0.01 0.01 0.01 0.01 0.01 0.01 0.02 0.03 0.02 0.02 0.02 0.02 0.03 0.03 0.02 0.02 0.02 0.03 0.02 0.01 0.01 0.01 0.01 0.00 0.00 0.01 0.01 0.01 0.01 0.01 0.01 0.01 0.01 0.01 0.01 0.01 0.01
0.00 0.00 0.01 0.01 0.01 0.01 0.00 0.01 0.01 0.01 0.01 0.01 0.03 0.03 0.03 0.02 0.02 0.02 0.02 0.02 0.02 0.02 0.02 0.02 0.02 0.02 0.02 0.01 0.00 0.00 0.01 0.00 0.00 0.00 0.01 0.01 0.01 0.01 0.01 0.01 0.01 0.01 0.01 0.01
0.00 0.00 0.00 0.00 0.01 0.01 0.00 0.00 0.00 0.00 0.01 0.03 0.03 0.03 0.02 0.01 0.01 0.02 0.02 0.02 0.02 0.02 0.02 0.02 0.01 0.02 0.02 0.01 0.01 0.01 0.01 0.01 0.01 0.01 0.01 0.01 0.01 0.01 0.01 0.01 0.02 0.01 0.01 0.02
0.00 0.00 0.00 0.00 0.01 0.01 0.00 0.00 0.01 0.01 0.02 0.02 0.03 0.03 0.05 0.04 0.02 0.02 0.02 0.02 0.03 0.03 0.02 0.02 0.02 0.02 0.02 0.02 0.02 0.01 0.01 0.01 0.02 0.02 0.01 0.01 0.01 0.01 0.00 0.01 0.01 0.00 0.01 0.01
0.01 0.01 0.00 0.00 0.00 0.00 0.00 0.01 0.01 0.02 0.02 0.03 0.04 0.05 0.09 0.06 0.03 0.02 0.03 0.03 0.03 0.03 0.02 0.01 0.02 0.01 0.02 0.02 0.01 0.01 0.01 0.01 0.01 0.01 0.01 0.01 0.00 0.00 0.00 0.00 0.00 0.00 0.00 0.00
0.02 0.01 0.01 0.01 0.01 0.01 0.01 0.01 0.01 0.02 0.02 0.02 0.03 0.06 0.05 0.03 0.03 0.02 0.03 0.03 0.03 0.03 0.02 0.02 0.02 0.02 0.02 0.02 0.02 0.02 0.02 0.01 0.01 0.02 0.01 0.01 0.00 0.00 0.00 0.00 0.00 0.00 0.00 0.00
0.02 0.01 0.01 0.01 0.02 0.02 0.02 0.01 0.01 0.01 0.01 0.02 0.04 0.05 0.05 0.05 0.03 0.02 0.02 0.03 0.04 0.04 0.04 0.05 0.04 0.03 0.03 0.02 0.02 0.02 0.02 0.02 0.01 0.02 0.01 0.01 0.01 0.01 0.01 0.00 0.00 0.00 0.00 0.00
0.02 0.02 0.02 0.02 0.02 0.02 0.01 0.01 0.01 0.01 0.01 0.02 0.03 0.04 0.05 0.04 0.03 0.02 0.02 0.02 0.02 0.03 0.06 0.07 0.09 0.09 0.08 0.06 0.05 0.03 0.02 0.01 0.01 0.01 0.01 0.01 0.01 0.00 0.00 0.01 0.01 0.01 0.01 0.01
0.01 0.01 0.01 0.02 0.02 0.01 0.01 0.01 0.01 0.01 0.01 0.02 0.03 0.03 0.05 0.05 0.03 0.02 0.02 0.02 0.02 0.03 0.03 0.03 0.03 0.04 0.04 0.04 0.03 0.03 0.02 0.02 0.01 0.01 0.01 0.01 0.01 0.01 0.01 0.01 0.01 0.01 0.02 0.03
0.01 0.01 0.01 0.01 0.01 0.02 0.01 0.01 0.01 0.02 0.02 0.03 0.03 0.03 0.03 0.04 0.03 0.02 0.02 0.02 0.03 0.03 0.02 0.02 0.03 0.03 0.02 0.02 0.03 0.03 0.02 0.01 0.01 0.01 0.01 0.02 0.02 0.02 0.01 0.00 0.00 0.01 0.01 0.02
0.01 0.01 0.01 0.02 0.02 0.02 0.01 0.01 0.02 0.04 0.04 0.04 0.04 0.04 0.03 0.03 0.03 0.03 0.03 0.03 0.02 0.03 0.03 0.03 0.03 0.03 0.02 0.02 0.02 0.02 0.02 0.01 0.01 0.01 0.01 0.01 0.02 0.02 0.02 0.01 0.00 0.00 0.00 0.01
0.01 0.01 0.02 0.03 0.03 0.02 0.02 0.02 0.03 0.04 0.04 0.05 0.04 0.03 0.03 0.02 0.03 0.04 0.04 0.03 0.03 0.03 0.03 0.03 0.02 0.02 0.02 0.02 0.02 0.02 0.01 0.01 0.01 0.01 0.01 0.01 0.01 0.01 0.01 0.01 0.01 0.00 0.00 0.00
0.02 0.02 0.02 0.04 0.05 0.04 0.03 0.03 0.03 0.03 0.03 0.05 0.05 0.03 0.02 0.02 0.02 0.03 0.04 0.03 0.03 0.04 0.04 0.03 0.02 0.02 0.02 0.02 0.02 0.01 0.01 0.01 0.01 0.01 0.01 0.01 0.01 0.01 0.01 0.00 0.00 0.00 0.00 0.00
0.03 0.02 0.02 0.04 0.08 0.07 0.04 0.04 0.03 0.03 0.03 0.03 0.05 0.04 0.03 0.02 0.03 0.03 0.04 0.03 0.03 0.04 0.04 0.04 0.05 0.04 0.03 0.02 0.01 0.01 0.01 0.01 0.01 0.01 0.01 0.01 0.01 0.01 0.01 0.01 0.00 0.00 0.00 0.01
0.04 0.03 0.03 0.04 0.06 0.06 0.04 0.04 0.03 0.03 0.03 0.03 0.03 0.04 0.03 0.03 0.03 0.03 0.02 0.03 0.03 0.03 0.02 0.03 0.04 0.04 0.03 0.02 0.02 0.01 0.01 0.01 0.02 0.02 0.02 0.02 0.02 0.02 0.01 0.01 0.01 0.01 0.01 0.01
0.05 0.04 0.03 0.04 0.05 0.06 0.05 0.04 0.03 0.03 0.03 0.04 0.03 0.03 0.03 0.04 0.05 0.03 0.02 0.02 0.02 0.03 0.03 0.03 0.03 0.03 0.02 0.02 0.02 0.02 0.02 0.02 0.02 0.02 0.03 0.03 0.03 0.03 0.02 0.02 0.02 0.02 0.02 0.02
0.07 0.05 0.04 0.04 0.05 0.06 0.05 0.05 0.04 0.03 0.03 0.03 0.04 0.03 0.03 0.03 0.04 0.03 0.02 0.02 0.02 0.03 0.03 0.03 0.02 0.02 0.01 0.01 0.01 0.02 0.02 0.02 0.03 0.03 0.03 0.03 0.03 0.03 0.03 0.04 0.04 0.03 0.03 0.04
0.08 0.06 0.04 0.04 0.05 0.06 0.06 0.05 0.04 0.03 0.03 0.03 0.04 0.03 0.02 0.02 0.02 0.02 0.02 0.02 0.03 0.04 0.03 0.02 0.01 0.01 0.01 0.01 0.01 0.01 0.02 0.01 0.01 0.01 0.02 0.02 0.02 0.02 0.03 0.03 0.04 0.04 0.04 0.04
MSLP
1014.19 1014.17 1014.15 1014.14 1014.11 1014.05 1013.94 1013.77 1013.54 1013.26 1012.95 1012.66 1012.43 1012.32 1012.39 1012.64 1013.11 1013.76 1014.56 1015.45 1016.37 1017.25 1018.04 1018.71 1019.23 1019.63 1019.92 1020.14 1020.32 1020.51 1020.72 1020.96 1021.23 1021.51 1021.78 1022.02 1022.21 1022.34 1022.41 1022.42 1022.37 1022.29 1022.19 1022.07
1014.47 1014.33 1014.16 1013.96 1013.75 1013.51 1013.26 1012.97 1012.67 1012.36 1012.06 1011.80 1011.62 1011.57 1011.67 1011.95 1012.40 1013.04 1013.81 1014.68 1015.60 1016.50 1017.34 1018.09 1018.72 1019.23 1019.65 1019.98 1020.27 1020.54 1020.82 1021.11 1021.42 1021.75 1022.07 1022.36 1022.62 1022.82 1022.96 1023.03 1023.05 1023.02 1022.95 1022.86
1014.63 1014.40 1014.11 1013.78 1013.43 1013.05 1012.66 1012.28 1011.91 1011.57 1011.27 1011.04 1010.89 1010.87 1010.98 1011.25 1011.69 1012.28 1013.02 1013.86 1014.76 1015.68 1016.56 1017.39 1018.12 1018.76 1019.31 1019.77 1020.17 1020.54 1020.89 1021.25 1021.61 1021.97 1022.33 1022.68 1022.99 1023.25 1023.45 1023.59 1023.67 1023.68 1023.65 1023.58
1014.54 1014.27 1013.92 1013.51 1013.06 1012.59 1012.12 1011.67 1011.26 1010.89 1010.59 1010.36 1010.23 1010.21 1010.32 1010.57 1010.98 1011.53 1012.23 1013.03 1013.92 1014.86 1015.79 1016.69 1017.54 1018.30 1018.97 1019.56 1020.08 1020.55 1020.98 1021.39 1021.80 1022.20 1022.59 1022.97 1023.32 1023.63 1023.88 1024.07 1024.20 1024.25 1024.26 1024.22
1014.12 1013.85 1013.50 1013.07 1012.59 1012.08 1011.58 1011.09 1010.65 1010.27 1009.96 1009.74 1009.61 1009.59 1009.69 1009.93 1010.30 1010.83 1011.49 1012.28 1013.17 1014.12 1015.11 1016.09 1017.03 1017.90 1018.70 1019.40 1020.03 1020.58 1021.08 1021.55 1021.99 1022.42 1022.84 1023.24 1023.62 1023.96 1024.25 1024.47 1024.63 1024.73 1024.76 1024.74
1013.36 1013.14 1012.83 1012.43 1011.98 1011.49 1010.99 1010.51 1010.07 1009.69 1009.38 1009.16 1009.03 1009.01 1009.11 1009.34 1009.71 1010.22 1010.87 1011.66 1012.56 1013.54 1014.57 1015.62 1016.64 1017.61 1018.50 1019.30 1020.01 1020.63 1021.19 1021.70 1022.17 1022.62 1023.05 1023.47 1023.87 1024.23 1024.54 1024.80 1024.98 1025.11 1025.17 1025.18
1012.35 1012.19 1011.95 1011.63 1011.24 1010.81 1010.36 1009.92 1009.50 1009.14 1008.84 1008.63 1008.51 1008.50 1008.61 1008.85 1009.22 1009.74 1010.41 1011.21 1012.13 1013.15 1014.22 1015.31 1016.39 1017.42 1018.38 1019.24 1020.00 1020.68 1021.27 1021.81 1022.30 1022.76 1023.21 1023.64 1024.04 1024.42 1024.76 1025.04 1025.26 1025.41 1025.50 1025.54
1011.21 1011.11 1010.96 1010.75 1010.46 1010.12 1009.74 1009.36 1008.99 1008.66 1008.38 1008.19 1008.09 1008.10 1008.23 1008.49 1008.89 1009.43 1010.13 1010.95 1011.90 1012.94 1014.04 1015.16 1016.26 1017.32 1018.30 1019.19 1019.98 1020.67 1021.29 1021.84 1022.34 1022.82 1023.27 1023.72 1024.14 1024.54 1024.90 1025.22 1025.47 1025.66 1025.78 1025.86
1010.10 1010.08 1010.02 1009.91 1009.74 1009.50 1009.21 1008.90 1008.58 1008.29 1008.04 1007.87 1007.79 1007.83 1007.99 1008.28 1008.72 1009.31 1010.03 1010.89 1011.86 1012.91 1014.01 1015.13 1016.23 1017.27 1018.24 1019.12 1019.90 1020.59 1021.20 1021.75 1022.27 1022.76 1023.23 1023.69 1024.15 1024.58 1024.97 1025.32 1025.62 1025.85 1026.02 1026.14
1009.18 1009.22 1009.26 1009.26 1009.19 1009.05 1008.85 1008.60 1008.34 1008.08 1007.86 1007.71 1007.66 1007.72 1007.91 1008.24 1008.72 1009.35 1010.10 1010.98 1011.96 1013.01 1014.09 1015.18 1016.23 1017.23 1018.16 1018.99 1019.74 1020.41 1021.01 1021.56 1022.08 1022.58 1023.08 1023.57 1024.06 1024.53 1024.97 1025.37 1025.71 1026.00 1026.22 1026.39
1008.55 1008.66 1008.78 1008.86 1008.88 1008.83 1008.70 1008.51 1008.29 1008.06 1007.86 1007.73 1007.69 1007.77 1007.99 1008.35 1008.86 1009.52 1010.30 1011.19 1012.16 1013.19 1014.23 1015.26 1016.25 1017.19 1018.04 1018.82 1019.52 1020.15 1020.73 1021.27 1021.80 1022.32 1022.85 1023.37 1023.90 1024.42 1024.91 1025.35 1025.75 1026.09 1026.37 1026.58
1008.27 1008.42 1008.60 1008.75 1008.84 1008.84 1008.76 1008.61 1008.42 1008.21 1008.02 1007.89 1007.86 1007.96 1008.19 1008.58 1009.11 1009.78 1010.57 1011.46 1012.41 1013.39 1014.38 1015.35 1016.27 1017.12 1017.91 1018.62 1019.26 1019.86 1020.41 1020.95 1021.49 1022.03 1022.58 1023.14 1023.71 1024.27 1024.80 1025.30 1025.74 1026.13 1026.45 1026.70
1008.27 1008.45 1008.66 1008.86 1008.98 1009.03 1008.98 1008.85 1008.67 1008.46 1008.28 1008.15 1008.13 1008.23 1008.47 1008.87 1009.41 1010.09 1010.87 1011.74 1012.66 1013.61 1014.54 1015.44 1016.28 1017.07 1017.78 1018.43 1019.03 1019.59 1020.13 1020.67 1021.21 1021.76 1022.34 1022.93 1023.52 1024.11 1024.68 1025.21 1025.68 1026.10 1026.45 1026.73
1008.44 1008.64 1008.88 1009.08 1009.22 1009.28 1009.24 1009.13 1008.95 1008.75 1008.57 1008.45 1008.43 1008.54 1008.79 1009.19 1009.73 1010.40 1011.18 1012.03 1012.91 1013.81 1014.69 1015.53 1016.32 1017.04 1017.70 1018.31 1018.88 1019.42 1019.94 1020.48 1021.02 1021.59 1022.17 1022.78 1023.38 1023.98 1024.56 1025.09 1025.58 1026.00 1026.36 1026.64
1008.67 1008.87 1009.10 1009.30 1009.44 1009.50 1009.47 1009.36 1009.19 1009.01 1008.84 1008.74 1008.73 1008.85 1009.11 1009.52 1010.06 1010.72 1011.48 1012.31 1013.17 1014.03 1014.86 1015.66 1016.40 1017.08 1017.71 1018.29 1018.84 1019.36 1019.89 1020.42 1020.96 1021.53 1022.11 1022.71 1023.30 1023.89 1024.45 1024.97 1025.44 1025.84 1026.18 1026.45
1008.84 1009.02 1009.23 1009.41 1009.54 1009.60 1009.57 1009.48 1009.34 1009.19 1009.06 1008.98 1009.01 1009.16 1009.43 1009.85 1010.40 1011.06 1011.80 1012.60 1013.43 1014.26 1015.07 1015.83 1016.54 1017.20 1017.81 1018.38 1018.92 1019.44 1019.96 1020.49 1021.03 1021.58 1022.14 1022.71 1023.27 1023.82 1024.34 1024.82 1025.25 1025.62 1025.92 1026.16
1008.87 1009.03 1009.20 1009.36 1009.48 1009.54 1009.54 1009.48 1009.39 1009.29 1009.22 1009.20 1009.28 1009.47 1009.78 1010.22 1010.77 1011.42 1012.15 1012.94 1013.74 1014.54 1015.32 1016.06 1016.75 1017.40 1018.00 1018.57 1019.10 1019.63 1020.14 1020.66 1021.18 1021.71 1022.23 1022.76 1023.27 1023.76 1024.22 1024.63 1025.00 1025.32 1025.58 1025.78
1008.76 1008.88 1009.02 1009.16 1009.28 1009.36 1009.40 1009.40 1009.38 1009.36 1009.37 1009.44 1009.58 1009.83 1010.18 1010.64 1011.20 1011.85 1012.56 1013.32 1014.09 1014.87 1015.62 1016.34 1017.01 1017.65 1018.25 1018.81 1019.35 1019.87 1020.37 1020.87 1021.36 1021.85 1022.33 1022.79 1023.24 1023.66 1024.04 1024.39 1024.69 1024.94 1025.15 1025.30
1008.53 1008.61 1008.73 1008.87 1009.01 1009.13 1009.22 1009.30 1009.38 1009.46 1009.56 1009.72 1009.95 1010.26 1010.65 1011.14 1011.70 1012.34 1013.03 1013.76 1014.49 1015.23 1015.95 1016.64 1017.30 1017.92 1018.51 1019.06 1019.59 1020.09 1020.58 1021.05 1021.51 1021.95 1022.37 1022.77 1023.14 1023.48 1023.79 1024.06 1024.29 1024.48 1024.64 1024.76
1008.26 1008.32 1008.44 1008.59 1008.75 1008.93 1009.10 1009.27 1009.45 1009.63 1009.84 1010.09 1010.40 1010.77 1011.20 1011.70 1012.27 1012.88 1013.54 1014.22 1014.92 1015.61 1016.28 1016.94 1017.57 1018.16 1018.73 1019.26 1019.77 1020.25 1020.71 1021.15 1021.56 1021.94 1022.30 1022.64 1022.94 1023.20 1023.44 1023.64 1023.81 1023.95 1024.06 1024.15
1008.03 1008.09 1008.22 1008.39 1008.61 1008.85 1009.10 1009.36 1009.64 1009.92 1010.22 1010.56 1010.92 1011.34 1011.79 1012.30 1012.85 1013.43 1014.05 1014.68 1015.32 1015.96 1016.59 1017.19 1017.78 1018.34 1018.87 1019.38 1019.86 1020.31 1020.73 1021.12 1021.48 1021.82 1022.12 1022.39 1022.63 1022.83 1023.00 1023.15 1023.27 1023.37 1023.45 1023.51
1007.91 1007.98 1008.14 1008.36 1008.62 1008.93 1009.26 1009.60 1009.95 1010.31 1010.69 1011.07 1011.48 1011.92 1012.38 1012.87 1013.39 1013.93 1014.50 1015.08 1015.66 1016.24 1016.81 1017.37 1017.91 1018.43 1018.92 1019.39 1019.83 1020.24 1020.62 1020.97 1021.29 1021.57 1021.82 1022.04 1022.22 1022.38 1022.51 1022.61 1022.70 1022.77 1022.83 1022.88
1007.92 1008.03 1008.22 1008.49 1008.81 1009.17 1009.55 1009.95 1010.36 1010.77 1011.18 1011.59 1012.01 1012.44 1012.89 1013.36 1013.84 1014.34 1014.85 1015.37 1015.90 1016.43 1016.95 1017.46 1017.95 1018.43 1018.88 1019.30 1019.70 1020.07 1020.40 1020.71 1020.98 1021.23 1021.44 1021.62 1021.77 1021.89 1022.00 1022.08 1022.14 1022.20 1022.25 1022.30
1008.06 1008.22 1008.46 1008.77 1009.13 1009.53 1009.95 1010.38 1010.80 1011.22 1011.64 1012.05 1012.46 1012.87 1013.28 1013.71 1014.15 1014.61 1015.08 1015.55 1016.03 1016.51 1016.99 1017.46 1017.91 1018.34 1018.75 1019.13 1019.48 1019.81 1020.11 1020.37 1020.61 1020.83 1021.01 1021.17 1021.30 1021.42 1021.51 1021.59 1021.65 1021.71 1021.76 1021.81
1008.32 1008.53 1008.81 1009.15 1009.54 1009.96 1010.38 1010.81 1011.22 1011.63 1012.02 1012.40 1012.78 1013.15 1013.53 1013.92 1014.32 1014.74 1015.17 1015.61 1016.06 1016.51 1016.95 1017.38 1017.80 1018.19 1018.56 1018.90 1019.22 1019.51 1019.77 1020.00 1020.22 1020.41 1020.58 1020.73 1020.87 1020.99 1021.09 1021.19 1021.26 1021.33 1021.39 1021.45
1008.65 1008.90 1009.22 1009.58 1009.97 1010.38 1010.79 1011.19 1011.58 1011.95 1012.30 1012.64 1012.97 1013.31 1013.65 1014.01 1014.38 1014.77 1015.18 1015.59 1016.02 1016.45 1016.87 1017.27 1017.66 1018.02 1018.35 1018.66 1018.94 1019.19 1019.42 1019.63 1019.83 1020.01 1020.18 1020.34 1020.50 1020.64 1020.77 1020.89 1021.00 1021.09 1021.17 1021.24
1009.01 1009.29 1009.62 1009.99 1010.38 1010.76 1011.15 1011.51 1011.86 1012.18 1012.49 1012.79 1013.08 1013.38 1013.70 1014.03 1014.38 1014.76 1015.15 1015.56 1015.97 1016.39 1016.79 1017.17 1017.53 1017.86 1018.16 1018.43 1018.67 1018.89 1019.10 1019.29 1019.47 1019.65 1019.83 1020.02 1020.20 1020.37 1020.54 1020.70 1020.85 1020.98 1021.08 1021.17
Thickness
5770 5777 5780 5777 5777 5780 5780 5786 5783 5789 5795 5804 5808 5809 5810 5811 5811 5811 5811 5811 5809 5807 5805 5803 5800 5797 5794 5790 5787 5783 5778 5773 5768 5765 5761 5758 5755 5752 5749 5746 5743 5741 5738 5736
5753 5765 5769 5768 5775 5778 5780 5786 5788 5791 5793 5810 5811 5810 5806 5805 5805 5805 5805 5806 5805 5803 5801 5798 5796 5793 5789 5785 5781 5778 5773 5769 5765 5761 5758 5754 5751 5748 5744 5740 5737 5735 5732 5729
5743 5754 5754 5750 5769 5775 5778 5786 5788 5782 5793 5801 5799 5799 5800 5801 5802 5802 5802 5802 5801 5799 5797 5794 5792 5789 5784 5781 5777 5773 5768 5764 5761 5758 5753 5749 5747 5742 5738 5734 5730 5726 5724 5722
5742 5737 5723 5760 5783 5783 5780 5784 5791 5792 5795 5795 5797 5800 5802 5803 5800 5799 5800 5799 5798 5797 5794 5792 5789 5786 5781 5777 5772 5767 5763 5759 5756 5753 5749 5745 5741 5736 5732 5728 5724 5720 5717 5714
5734 5729 5736 5753 5768 5773 5769 5771 5786 5786 5788 5791 5794 5792 5794 5800 5800 5799 5799 5798 5796 5794 5792 5788 5784 5781 5776 5772 5767 5762 5757 5754 5751 5748 5743 5739 5734 5730 5726 5722 5718 5714 5711 5707
5728 5723 5724 5749 5769 5777 5770 5758 5782 5784 5782 5784 5785 5779 5785 5795 5796 5795 5795 5794 5792 5790 5787 5782 5779 5776 5771 5766 5761 5756 5753 5749 5745 5741 5736 5732 5728 5723 5720 5716 5712 5709 5704 5701
5723 5723 5739 5758 5766 5765 5746 5758 5778 5781 5780 5780 5781 5785 5788 5790 5789 5790 5789 5788 5787 5784 5780 5776 5774 5770 5765 5760 5755 5752 5748 5743 5739 5735 5730 5726 5721 5717 5713 5710 5706 5702 5698 5694
5722 5719 5729 5753 5757 5754 5758 5768 5773 5775 5777 5777 5779 5781 5782 5782 5782 5782 5782 5781 5780 5777 5772 5770 5768 5764 5758 5753 5750 5746 5741 5736 5732 5728 5725 5720 5715 5711 5707 5704 5699 5695 5691 5688
5728 5730 5739 5751 5754 5756 5760 5761 5765 5769 5772 5773 5772 5773 5775 5775 5775 5775 5774 5773 5773 5770 5765 5763 5761 5759 5752 5747 5744 5739 5734 5730 5725 5722 5717 5714 5710 5705 5701 5698 5697 5693 5689 5685
5720 5727 5733 5740 5745 5749 5753 5755 5760 5764 5766 5767 5766 5769 5769 5769 5768 5767 5767 5766 5765 5762 5759 5755 5754 5751 5747 5743 5738 5734 5728 5723 5719 5715 5711 5706 5703 5700 5697 5694 5692 5688 5685 5682
5713 5721 5727 5732 5737 5742 5746 5751 5754 5758 5761 5761 5762 5762 5763 5762 5761 5761 5761 5760 5759 5756 5753 5749 5747 5744 5741 5737 5733 5727 5722 5717 5713 5709 5705 5699 5694 5689 5689 5685 5684 5682 5680 5677
5711 5717 5724 5725 5732 5737 5739 5742 5746 5748 5750 5754 5756 5755 5755 5755 5755 5754 5753 5753 5751 5749 5746 5743 5740 5736 5734 5730 5727 5722 5716 5712 5709 5705 5700 5695 5689 5681 5674 5674 5671 5669 5667 5667
5708 5716 5719 5722 5726 5731 5733 5736 5739 5741 5742 5744 5746 5747 5747 5746 5747 5747 5746 5745 5744 5742 5740 5737 5733 5730 5727 5724 5721 5717 5712 5708 5704 5700 5696 5691 5687 5682 5675 5666 5661 5659 5657 5655
5702 5706 5707 5713 5718 5722 5726 5729 5733 5735 5736 5738 5738 5739 5739 5738 5739 5738 5738 5738 5737 5735 5733 5730 5727 5723 5721 5718 5714 5710 5707 5701 5698 5694 5691 5688 5684 5680 5676 5671 5665 5658 5650 5645
5694 5699 5703 5708 5712 5715 5719 5722 5723 5725 5727 5728 5731 5730 5731 5730 5730 5730 5731 5731 5730 5728 5726 5723 5720 5717 5714 5711 5707 5704 5701 5697 5694 5690 5687 5683 5680 5677 5673 5668 5663 5657 5651 5641
5687 5692 5696 5699 5702 5707 5711 5713 5714 5716 5718 5719 5721 5722 5723 5723 5723 5723 5723 5723 5720 5719 5718 5716 5713 5711 5708 5705 5701 5697 5694 5688 5686 5684 5681 5677 5674 5671 5668 5663 5658 5653 5648 5643
5677 5681 5686 5690 5695 5699 5703 5706 5708 5709 5710 5710 5711 5714 5714 5714 5713 5713 5714 5714 5713 5711 5710 5708 5706 5704 5701 5698 5695 5692 5688 5682 5677 5677 5675 5672 5669 5666 5662 5658 5653 5648 5643 5637
5674 5679 5683 5686 5690 5693 5696 5699 5701 5701 5702 5703 5705 5706 5705 5705 5705 5704 5705 5705 5704 5702 5701 5700 5699 5696 5693 5691 5688 5686 5682 5678 5674 5671 5668 5665 5662 5659 5656 5651 5647 5642 5636 5629
5668 5672 5677 5681 5684 5687 5689 5691 5693 5695 5696 5697 5697 5697 5697 5697 5697 5696 5697 5695 5694 5692 5691 5691 5687 5687 5685 5682 5680 5677 5675 5671 5667 5664 5662 5655 5654 5652 5649 5645 5641 5636 5631 5625
5661 5666 5670 5674 5678 5680 5681 5683 5685 5686 5688 5689 5690 5689 5689 5688 5688 5688 5687 5687 5687 5686 5684 5682 5680 5679 5677 5674 5670 5671 5668 5665 5661 5658 5654 5651 5649 5645 5642 5638 5634 5629 5624 5619
5653 5658 5662 5666 5669 5671 5674 5675 5677 5677 5679 5681 5681 5681 5680 5680 5680 5680 5678 5678 5677 5677 5675 5671 5672 5671 5669 5666 5662 5664 5662 5658 5655 5652 5649 5645 5642 5639 5635 5631 5627 5622 5617 5613
5645 5650 5654 5658 5660 5662 5665 5667 5669 5670 5671 5672 5672 5672 5671 5670 5671 5671 5670 5670 5669 5665 5666 5666 5665 5662 5660 5657 5658 5657 5655 5651 5648 5645 5642 5638 5635 5631 5627 5623 5619 5615 5610 5606
5638 5642 5646 5649 5651 5654 5656 5659 5661 5662 5663 5663 5663 5663 5664 5664 5665 5664 5661 5661 5661 5657 5658 5658 5654 5650 5648 5651 5651 5649 5646 5643 5640 5636 5633 5630 5627 5623 5619 5615 5611 5607 5603 5599
5630 5634 5638 5641 5643 5645 5647 5650 5653 5654 5655 5655 5655 5656 5657 5657 5657 5658 5656 5651 5650 5649 5650 5644 5641 5640 5640 5645 5643 5641 5638 5634 5631 5628 5625 5622 5619 5616 5612 5608 5604 5600 5596 5591
5623 5627 5630 5633 5635 5638 5640 5642 5644 5646 5647 5647 5648 5649 5651 5652 5651 5649 5648 5645 5640 5641 5639 5634 5632 5632 5635 5636 5634 5632 5629 5626 5623 5620 5617 5614 5611 5608 5604 5601 5596 5593 5589 5584
5616 5620 5623 5626 5629 5631 5635 5637 5639 5639 5640 5640 5641 5642 5642 5642 5641 5640 5639 5638 5636 5633 5633 5630 5628 5626 5628 5627 5625 5622 5620 5616 5614 5612 5609 5606 5602 5599 5595 5591 5587 5585 5581 5577
5609 5613 5615 5619 5623 5626 5628 5630 5631 5632 5633 5634 5634 5634 5634 5633 5633 5632 5632 5630 5629 5627 5626 5625 5624 5622 5621 5619 5617 5614 5612 5610 5607 5604 5601 5598 5594 5591 5587 5583 5580 5577 5573 5569